Hourly Weather Roundup
Issued by NWS Central Illinois

Home | Current Version | Previous Version | Text Only | Print | Product List | Glossary On
Versions: 1 2 3 4 5 6 7 8 9 10 11 12 13 14 15 16 17 18 19 20 21 22 23 24 25 26 27 28 29 30 31 32 33 34 35 36 37 38 39 40 41 42 43 44 45 46 47 48 49 50
000
NZUS43 KILX 110210
HWRILX

AREA WEATHER ROUNDUP
NATIONAL WEATHER SERVICE, LINCOLN IL
800 PM CST SAT DEC 10 2016


CITY           SKY/WX    TMP DP  RH WIND       PRES   REMARKS
BLOOMINGTON    FLURRIES  26  19  74 SE14      30.30F WCI  14
CHAMPAIGN      CLOUDY    28  18  66 SE12      30.34F WCI  18
DANVILLE       CLOUDY    25  22  87 E8        30.32F WCI  16
DECATUR        CLOUDY    28  18  66 SE13      30.32F WCI  17
EFFINGHAM      CLOUDY    31  22  67 E10G16    30.35F WCI  22
FLORA          CLOUDY    33  21  63 SE7       30.36F WCI  26
GALESBURG      CLOUDY    24  20  87 E10       30.23F WCI  13
JACKSONVILLE   CLOUDY    31  20  65 SE12      30.23F WCI  21
LACON          MIX PCPN  24  21  90 SE6       30.30F WCI  17
LAWRENCEVILLE  CLOUDY    30  19  63 SE9       30.38F WCI  22
LITCHFIELD     CLOUDY    31  19  62 SE15      30.28F WCI  20
$$


CITY           SKY/WX    TMP DP  RH WIND       PRES   REMARKS
LINCOLN        CLOUDY    29  20  69 SE12G21   30.30F WCI  20
MACOMB         CLOUDY    28  20  72 SE13      30.25F WCI  17
MATTOON        CLOUDY    28  17  63 SE8       30.33F WCI  20
MT CARMEL AP   CLOUDY    31  19  62 SE9       30.37F WCI  23
OLNEY-NOBLE AP CLOUDY    32  21  64 SE7       30.37F WCI  26
PARIS          CLOUDY    28  20  73 SE9       30.36F WCI  19
PEORIA         CLOUDY    26  20  77 SE9       30.28F WCI  17
PONTIAC        LGT SNOW  26  25  97 SE10      30.34F WCI  15
RANTOUL        CLOUDY    28  22  76 SE12      30.33F WCI  18
SPRINGFIELD    CLOUDY    31  20  63 SE14      30.27F WCI  21
TAYLORVILLE    CLOUDY    30  20  67 SE12      30.29F WCI  20
$$

...REGIONAL REPORTS...


CITY           SKY/WX    TMP DP  RH WIND       PRES   REMARKS
CHICAGO O`HARE LGT SNOW  22  20  92 SE10      30.34F VSB 3/4 WCI  11
KANKAKEE       FLURRIES  24  22  92 CALM      30.37F
MOLINE         CLOUDY    24  18  77 E12       30.26F WCI  13
MOUNT STERLING CLOUDY    29  19  66 SE13      30.21F WCI  19
MOUNT VERNON   NOT AVBL
PITTSFIELD     CLOUDY    32  21  65 SE12      30.23F WCI  23
QUINCY         CLOUDY    30  19  63 SE14      30.19F WCI  19
ROCKFORD       LGT SNOW  21  18  88 SE9       30.32F FOG     WCI  11
$$


CITY           SKY/WX    TMP DP  RH WIND       PRES   REMARKS
BURLINGTON     CLOUDY    27  18  69 SE12      30.20F WCI  17
CEDAR RAPIDS   CLOUDY    22  20  92 SE14      30.17F WCI   9
DES MOINES     CLOUDY    26  18  71 SE10      30.10F WCI  16
KIRKSVILLE     CLOUDY    31  18  58 SE13      30.14F WCI  21
OTTUMWA        CLOUDY    27  16  63 SE14      30.14F WCI  16
ST LOUIS       CLOUDY    36  18  48 SE14      30.26F WCI  27
$$


CITY           SKY/WX    TMP DP  RH WIND       PRES   REMARKS
TERRE HAUTE    CLOUDY    28  18  66 SE9       30.38F WCI  19
EVANSVILLE     CLOUDY    31  19  61 E5        30.39F WCI  26
INDIANAPOLIS   CLOUDY    28  17  63 S8        30.38F WCI  20
LAFAYETTE      LGT SNOW  24  23  96 SE6       30.37F FOG     WCI  17
MADISON        LGT SNOW  19  16  88 SE7       30.29F VSB 1   WCI  10
MILWAUKEE      LGT SNOW  22  17  81 S6        30.33F WCI  14
$$





USA.gov is the U.S. government's official web portal to all federal, state and local government web resources and services.